Find Global-12

NORAD ID: 49772 Int'l Des: 2021-115 Owner: BSKG Country: US operational
LEOCIRCULAR

实时位置

正在加载3D地球...

关于 Global-12

正在加载描述...

即将过境

Passes for default location (London). Set your location on the main map for personalized predictions.

高度历史

Loading altitude history...

两行轨道根数

1 49772U 21115BA 26105.92371909 .00018206 00000-0 32448-3 0 9994
2 49772 53.1972 343.1233 0003307 155.4151 204.7017 15.50187244246237
Epoch: Apr 15, 2026 • Age: 12 hours

当前状态

高度 430.8 km
速度 7.65 km/s
星下点 -44.19°S, 147.96°W
发射日期 Dec 2, 2021
运行时间 4.3 years
类型 earth observation

技术详情

分类 Payload
质量 55.00 kg
干质量 50.00 kg
总质量 55.00 kg
长度 1.00 m
直径 0.50 m
跨度 1.00 m
形状 Box
制造商 LEOSTL
平台类型 BSky
阶段状态 In Orbit
所有者/国家 BSKG/US

Most Searched